Lapse_Rate
4.9 6.5 6.5 6.5 6.5 6.5 6.5 6.5 6.5 6.5 6.5 6.5 6.5 6.5 6.5 5.4 4.1 5.0 5.1 4.6 4.0 3.1 2.8 1.1 0.0 0.2 0.7 1.0 0.9 3.6 3.1 2.9 3.9 2.5 2.4 2.0 1.4 2.0 1.7 3.1 3.0 2.8 2.8 2.7
6.5 6.5 6.5 6.5 6.5 6.5 6.5 6.5 6.5 6.5 6.5 6.5 6.5 6.5 6.5 6.0 6.0 6.0 6.1 5.5 4.8 4.3 4.1 3.6 2.6 1.7 1.7 1.6 1.7 1.6 1.8 2.6 3.0 2.3 1.4 2.2 2.6 2.8 2.5 2.4 2.2 2.7 2.5 2.5
6.5 6.5 6.4 6.5 6.5 6.5 6.5 6.5 6.5 6.5 6.5 6.5 6.5 6.5 6.5 6.4 5.9 6.1 5.7 5.1 4.5 3.6 3.3 3.0 2.3 1.1 1.0 2.1 2.6 2.8 2.7 2.5 2.6 1.9 1.8 2.3 2.6 1.9 1.0 0.6 0.3 1.5 2.5 2.7
6.5 6.2 6.5 6.5 6.5 6.5 6.5 6.5 6.5 6.5 6.5 6.5 6.5 6.5 6.5 6.5 6.5 6.3 5.7 4.4 4.2 3.9 2.9 3.0 2.4 2.4 2.1 1.9 1.6 2.4 2.7 2.7 2.5 1.9 2.8 3.0 2.8 2.7 1.2 0.4 0.5 1.4 2.4 2.5
6.5 6.5 6.5 6.5 6.5 6.5 6.5 6.5 6.5 6.5 6.5 6.5 6.5 6.5 6.5 6.5 6.5 6.5 5.9 4.8 4.4 3.2 3.2 2.8 2.8 2.5 2.6 1.9 2.1 2.2 2.8 3.3 3.0 2.8 2.6 2.4 2.4 1.0 0.5 0.9 2.0 3.0 2.9 3.0
6.5 6.0 6.4 6.5 6.5 6.5 6.5 6.5 6.5 6.5 6.5 6.5 6.5 6.5 6.5 6.5 6.5 6.5 6.2 5.3 4.6 3.2 2.8 3.1 3.4 3.4 2.9 1.9 1.7 1.9 2.4 2.0 2.2 1.8 1.7 1.8 1.8 2.1 2.6 3.6 4.2 3.9 2.9 2.9
6.5 6.5 6.4 6.2 6.5 6.5 6.5 6.5 6.5 6.5 6.5 6.5 6.5 6.5 6.5 6.5 6.5 6.3 6.1 4.8 3.8 3.7 3.3 3.6 4.1 4.1 3.2 2.2 2.1 2.2 2.5 2.4 2.2 2.0 2.2 2.3 2.6 3.2 4.1 4.1 4.2 3.5 2.9 2.4
6.5 6.5 6.5 6.5 6.5 6.5 6.5 6.5 6.5 6.5 6.5 6.5 6.5 6.5 6.5 6.5 4.9 5.1 5.1 4.4 4.4 3.8 3.7 3.3 3.1 2.4 2.1 2.1 1.8 2.2 2.7 3.0 3.1 3.0 3.2 3.2 3.4 3.3 3.7 3.9 3.3 2.9 2.8 3.0
6.5 6.5 6.5 6.5 6.5 6.5 6.5 6.5 6.5 6.5 6.5 6.5 6.5 6.5 6.5 6.5 6.4 5.5 5.0 4.1 3.4 2.9 2.4 2.1 2.3 2.0 1.6 1.6 2.0 2.6 3.7 4.3 4.3 4.3 4.1 3.8 3.4 3.5 3.6 3.7 2.9 2.4 2.7 3.8
6.5 6.5 6.5 6.5 6.4 6.3 6.5 6.5 6.5 6.5 6.5 6.5 6.5 6.5 6.5 6.5 6.5 6.5 6.0 4.8 4.1 3.5 3.1 2.8 2.3 2.0 2.4 2.9 2.9 2.9 3.1 4.0 4.5 4.3 4.0 4.3 3.7 3.7 3.5 2.9 2.7 2.6 3.0 4.7
6.5 6.5 6.5 6.5 6.5 6.5 6.5 6.5 6.5 6.5 6.5 6.5 6.5 6.5 6.5 6.5 6.5 6.5 5.7 4.9 4.2 3.9 3.8 3.8 4.0 4.2 3.5 3.3 3.8 3.8 3.9 3.9 4.0 3.8 3.4 3.4 3.8 3.7 3.3 2.8 3.1 3.4 4.2 5.2
6.5 6.5 6.5 6.5 6.5 6.5 6.5 6.5 6.5 6.5 6.5 6.5 6.5 6.5 6.5 6.5 5.6 5.7 5.2 4.4 3.5 3.5 4.5 4.7 4.5 4.0 4.2 4.4 4.4 4.4 3.6 3.8 3.5 3.2 3.5 3.6 3.9 3.7 3.4 3.8 4.3 4.2 4.0 4.5
6.5 6.5 6.5 6.5 6.5 6.5 6.5 6.5 6.5 6.5 6.5 6.5 6.5 6.5 6.5 5.9 5.9 6.0 4.7 4.9 4.7 3.9 3.8 3.7 3.8 4.3 4.4 4.5 4.9 3.7 3.4 3.4 3.3 3.3 3.4 3.5 3.0 3.1 3.7 4.1 3.9 4.1 4.2 4.3
5.6 6.5 6.5 6.5 6.5 6.5 6.5 6.5 6.5 6.5 6.5 6.5 6.5 6.5 6.5 6.5 6.5 5.3 5.0 4.2 4.0 4.0 4.3 3.8 3.6 4.2 4.5 4.6 3.8 3.7 3.7 3.4 3.9 3.8 3.5 3.3 3.5 4.3 4.3 4.0 3.8 4.0 4.4 5.5
6.5 6.5 6.5 6.5 6.5 6.5 6.5 6.5 6.5 6.5 6.5 6.5 6.5 6.5 6.5 6.5 6.5 5.4 4.5 4.3 4.6 4.7 5.2 4.8 4.6 5.0 4.3 3.7 3.6 3.8 3.9 4.3 4.1 4.1 4.0 4.4 4.5 4.5 4.4 4.3 4.1 4.3 5.9 6.4
6.4 6.5 6.5 6.5 6.5 6.5 6.5 6.5 6.5 6.5 6.5 6.5 6.5 6.5 6.5 5.5 4.7 5.0 4.7 4.8 4.8 5.3 5.6 5.9 5.8 4.8 4.4 3.8 4.1 4.5 4.5 4.3 4.3 4.2 4.7 4.7 4.6 4.3 4.5 4.5 4.8 5.2 6.2 6.0
6.5 6.5 6.5 6.5 6.5 6.5 6.5 6.5 6.5 6.5 6.5 6.5 6.5 6.5 5.9 6.4 5.8 4.7 4.3 4.7 4.8 5.2 5.5 5.9 5.1 4.6 3.9 4.1 4.4 4.5 4.4 4.4 4.4 4.7 5.0 5.0 4.5 4.6 4.7 4.8 5.2 5.3 5.7 5.8
6.5 6.5 6.5 6.5 6.5 6.5 6.5 6.5 6.5 6.5 6.5 6.5 6.5 6.5 6.1 5.3 4.5 4.1 4.1 4.1 4.2 4.8 5.4 5.2 4.4 4.1 3.8 4.1 4.4 4.0 4.0 4.1 4.4 4.8 4.9 4.6 4.6 4.8 4.9 5.2 5.2 4.7 5.7 5.5
6.1 6.5 6.5 6.5 6.5 6.5 6.5 6.5 6.5 6.5 6.5 6.5 6.5 6.3 5.5 4.3 5.0 5.3 4.2 4.3 4.3 4.7 5.0 4.1 4.1 3.9 4.0 4.4 4.1 3.8 3.9 4.2 4.7 4.7 4.7 4.9 5.0 5.1 5.6 5.8 5.3 4.5 4.7 4.3
6.5 6.5 6.5 6.5 6.5 6.5 6.5 6.5 5.2 5.8 6.5 5.5 5.2 5.6 5.4 5.1 6.5 6.5 3.9 4.8 4.9 5.3 4.0 4.0 3.9 4.3 4.3 4.2 3.7 4.4 4.7 4.6 4.7 4.8 5.3 5.2 5.4 5.7 5.5 5.6 5.6 5.4 5.0 4.5
6.5 6.5 6.5 6.5 6.5 6.5 6.5 6.0 5.3 6.5 6.5 4.4 3.9 4.2 4.5 6.3 4.2 3.6 4.1 4.8 5.6 4.3 4.8 4.1 4.5 4.5 4.1 4.0 4.7 4.9 4.7 4.9 5.1 5.2 5.3 5.5 5.4 5.2 5.4 5.1 5.0 4.1 3.7 3.6
6.5 6.5 6.5 6.5 6.5 6.5 5.3 6.3 6.5 5.5 3.0 2.2 2.4 2.6 3.7 4.4 3.7 4.7 5.2 4.9 4.6 4.7 4.4 4.8 4.0 3.9 4.1 4.5 4.9 5.1 4.7 5.4 5.3 5.2 5.4 5.3 5.0 4.9 5.7 4.6 3.8 3.9 3.8 4.1
6.5 6.5 6.5 6.5 6.5 5.6 4.2 4.7 3.0 1.5 1.2 2.0 1.6 2.2 3.5 4.0 4.6 5.2 4.8 4.4 4.1 3.7 3.9 4.1 3.9 4.4 4.5 4.4 4.9 5.1 5.1 5.2 5.1 5.2 5.2 5.0 4.8 4.7 4.8 4.7 4.0 4.1 4.1 2.5
6.5 5.7 6.5 6.5 6.3 5.6 3.4 3.8 4.3 1.8 2.5 1.1 1.9 3.1 4.0 4.6 5.4 4.9 4.1 3.7 3.4 3.6 3.7 3.8 4.2 4.2 4.1 4.1 4.5 4.5 4.4 4.6 4.7 5.2 5.4 5.0 4.9 4.8 4.6 4.7 4.9 4.5 2.2 1.6
5.8 6.0 6.5 6.5 6.0 5.1 3.8 2.5 2.4 1.8 1.6 2.6 3.6 4.1 5.0 4.8 4.2 4.1 3.6 3.4 3.5 3.6 3.9 4.0 3.8 3.7 3.8 3.8 4.0 4.2 3.9 4.3 5.7 6.4 6.3 5.4 4.6 4.8 4.9 5.2 5.4 5.2 4.6 3.8
4.9 6.5 6.5 6.5 3.6 4.2 3.8 2.1 0.8 1.2 2.4 4.1 5.1 5.4 5.0 4.7 4.0 3.7 3.1 3.2 3.2 3.7 3.7 3.6 3.7 3.6 3.6 3.5 3.3 3.6 4.2 4.7 6.1 6.3 5.9 4.7 4.3 4.0 4.8 5.2 5.8 6.5 6.1 6.4
Wind_Speed
4 6 3 4 2 3 2 2 3 2 2 6 6 8 9 8 12 11 9 10 11 11 7 9 11 12 13 11 9 5 4 1 2 3 4 4 3 3 4 10 13 15 15 15
7 3 0 8 6 6 6 6 1 2 7 8 9 11 10 10 5 9 13 11 10 9 11 12 12 12 11 6 6 7 7 7 5 4 3 3 3 2 4 7 10 10 11 9
5 2 5 7 7 7 4 3 3 4 5 7 7 7 8 6 9 10 8 7 7 10 10 7 8 9 8 8 8 7 7 8 7 7 4 3 4 4 2 2 3 9 12 14
6 6 5 6 5 3 3 1 2 3 4 4 3 2 3 3 6 5 6 6 7 7 8 5 6 6 8 6 6 6 6 6 4 4 3 4 3 3 2 2 2 5 11 12
2 3 5 6 1 2 3 2 2 1 3 4 3 5 3 5 3 3 4 6 8 10 9 8 7 7 5 4 4 4 6 5 5 5 4 3 4 4 3 3 3 3 5 8
3 2 3 2 1 1 2 4 6 4 3 2 1 5 4 6 7 5 4 5 6 6 6 6 4 6 7 6 6 5 6 5 5 6 6 7 7 5 3 2 2 2 1 2
5 4 5 3 2 3 5 5 2 3 3 4 5 3 5 8 11 7 9 8 6 2 3 4 6 4 7 7 6 6 6 6 6 7 6 6 7 6 5 5 4 4 3 3
4 3 4 5 2 2 3 4 4 5 3 3 5 2 4 3 10 10 5 7 6 6 6 6 7 7 8 7 7 6 6 5 4 4 5 4 6 4 5 6 4 4 4 2
4 1 3 1 2 3 1 4 3 6 3 3 2 2 5 4 7 7 9 8 8 7 7 8 7 7 7 7 5 4 3 1 3 3 3 5 5 6 6 6 4 3 2 3
5 4 1 3 3 4 5 4 3 4 2 1 2 3 4 7 11 6 6 10 7 7 7 6 6 7 5 4 2 3 4 3 3 4 4 4 4 6 6 4 6 5 4 3
3 3 4 2 3 1 4 2 6 5 3 4 1 5 5 9 8 8 7 9 9 8 7 5 5 4 4 2 2 2 2 4 4 4 4 4 6 6 6 5 4 3 4 5
2 5 3 1 5 3 1 3 4 4 2 1 3 5 3 7 8 11 10 9 7 7 6 5 4 4 1 2 1 1 4 5 4 3 3 5 5 6 5 4 4 5 6 5
2 2 3 6 6 5 3 3 5 5 3 4 4 5 2 5 6 3 9 8 7 7 5 3 3 3 3 3 1 4 4 4 3 4 4 4 5 6 5 5 6 6 6 4
4 3 5 6 4 3 3 2 4 5 3 3 6 3 5 4 7 7 7 7 7 6 5 4 3 2 2 2 4 4 3 3 2 3 4 4 4 5 6 6 6 6 4 5
4 3 2 3 4 2 1 3 5 6 5 5 5 7 5 10 9 8 7 6 6 5 3 2 1 2 4 4 3 1 1 1 1 1 1 1 3 5 6 6 6 5 4 5
4 1 1 1 4 5 3 5 7 6 4 7 5 5 3 5 5 6 8 7 5 4 3 3 2 4 2 4 2 1 3 4 2 1 2 3 4 6 6 6 6 6 3 2
3 4 3 3 4 4 6 8 8 5 4 6 6 8 7 5 8 8 7 7 6 5 5 3 3 2 4 4 3 4 5 3 3 2 3 4 5 6 6 6 5 5 4 2
5 4 2 2 3 2 6 3 4 6 4 3 2 7 10 6 4 5 6 6 7 6 4 3 3 4 5 3 3 4 4 4 2 2 4 5 6 6 6 5 5 5 2 3
3 5 3 4 3 5 4 5 7 7 7 7 6 5 4 4 3 3 6 5 6 6 5 4 4 4 3 3 5 4 4 1 1 4 5 5 6 6 6 6 6 4 4 1
5 6 4 2 4 6 6 3 5 4 5 8 8 8 8 7 3 5 8 6 7 5 5 5 4 2 2 5 3 2 2 2 3 4 5 5 5 6 6 6 5 2 0 3
2 3 5 2 4 8 6 4 3 5 7 7 10 10 9 8 5 3 6 4 5 5 5 4 3 1 3 3 2 3 3 4 4 5 5 5 5 6 6 5 2 3 4 4
7 6 4 3 1 8 7 3 8 6 2 9 9 9 13 7 6 5 7 7 7 6 5 3 2 3 3 3 2 3 4 5 6 5 5 4 5 4 3 3 2 4 4 3
3 7 5 9 6 4 6 4 5 6 6 7 8 5 8 7 6 6 5 7 5 6 3 2 2 2 4 5 2 4 5 6 6 5 4 4 4 4 3 1 2 2 2 2
4 4 2 2 5 8 8 5 3 6 5 5 6 7 7 7 6 6 6 6 5 3 2 0 2 3 5 5 4 4 6 6 6 5 4 4 3 4 3 0 2 2 2 2
4 5 5 5 7 5 7 7 5 5 6 7 8 7 11 9 7 7 6 5 4 3 1 1 3 3 5 5 5 6 7 6 4 4 4 4 3 3 1 2 3 2 3 4
5 7 4 7 8 5 5 5 7 9 10 10 9 6 4 6 7 6 6 5 4 2 1 3 4 5 5 5 6 6 6 4 4 4 4 3 2 3 3 3 3 5 6 7
Wind_Direction
6 64 72 55 105 171 105 101 167 272 20 80 51 32 12 3 95 104 98 96 87 79 75 71 79 90 84 70 70 51 38 308 128 50 60 48 50 23 31 53 69 73 76 70
25 83 222 90 57 76 77 117 105 99 35 84 65 33 32 38 63 98 109 96 92 86 82 79 84 82 80 91 97 92 101 117 111 96 113 127 138 99 98 92 74 80 83 80
123 308 61 82 43 74 35 85 13 115 55 36 93 38 14 21 60 82 75 95 91 110 100 94 104 113 120 121 129 132 138 130 134 130 109 80 81 93 81 62 46 43 54 46
72 335 89 71 81 93 63 326 54 45 89 178 82 144 23 8 54 79 104 115 128 129 136 142 129 123 131 148 160 150 141 129 153 155 158 163 179 166 67 80 61 66 64 68
220 81 73 64 82 110 183 141 128 108 83 88 34 91 231 121 129 157 153 163 171 164 153 154 156 149 156 111 71 31 38 32 33 31 43 60 61 71 95 117 130 128 133 114
101 162 80 186 2 120 115 94 42 50 83 58 278 130 228 195 189 173 196 207 182 162 149 144 149 113 93 74 59 60 83 57 74 68 63 87 108 118 118 193 199 206 111 107
14 358 331 47 87 11 72 73 11 10 11 206 328 72 224 218 167 176 173 196 201 128 103 88 91 95 76 63 85 86 85 81 96 98 104 122 141 161 179 206 216 217 212 214
117 358 4 337 98 193 51 135 148 190 188 239 359 353 277 176 131 164 157 104 121 117 122 99 105 92 82 79 85 83 76 73 82 115 142 163 176 196 212 219 215 225 212 202
129 348 323 313 358 134 157 50 151 106 13 69 265 12 15 97 118 155 158 134 121 110 104 97 85 84 88 84 90 105 99 121 199 185 189 219 224 230 235 245 230 217 199 216
183 101 357 307 57 20 113 141 52 9 118 187 271 222 207 208 188 184 143 123 116 92 84 95 92 102 111 101 65 23 10 332 285 234 248 262 300 309 291 268 240 216 232 249
106 96 275 23 19 221 2 39 62 107 111 155 175 259 217 196 189 158 139 129 135 130 131 115 97 119 140 108 62 359 346 350 325 275 339 325 305 307 288 246 246 265 255 240
36 121 96 206 292 293 163 124 113 106 208 36 142 275 328 178 156 148 154 151 140 128 128 122 119 89 115 226 278 44 34 26 4 350 355 351 330 307 286 304 298 267 255 254
145 35 69 354 351 351 104 62 92 105 90 197 132 263 71 71 118 137 134 127 128 129 120 120 152 186 209 222 133 52 40 39 53 44 22 352 350 350 318 291 272 250 219 240
106 98 149 183 201 175 152 117 106 113 123 194 225 216 199 179 158 139 140 138 148 150 151 168 173 212 269 9 59 72 58 39 37 28 17 14 360 336 313 299 261 255 261 293
87 114 88 53 23 52 147 177 173 191 189 173 252 215 223 195 179 165 151 152 154 155 149 156 191 301 4 67 98 81 32 334 318 354 48 321 316 308 297 290 283 277 279 304
16 159 89 103 5 8 279 250 242 234 221 255 249 245 220 123 116 149 171 164 170 185 204 236 324 0 39 120 133 286 279 276 264 231 284 295 315 303 300 295 294 282 285 287
78 117 90 254 346 338 332 218 193 198 198 176 187 220 164 174 176 177 180 181 187 200 211 264 313 258 158 178 205 257 271 309 301 253 294 315 298 293 297 298 304 300 284 284
115 91 72 180 21 7 244 312 231 197 214 195 126 175 178 166 158 166 185 184 206 212 238 252 197 173 192 214 263 284 319 307 280 302 291 280 286 298 307 322 318 306 282 298
73 118 99 139 198 300 282 206 164 171 252 194 175 159 169 113 72 280 216 204 201 211 209 189 186 185 196 272 308 322 309 273 235 267 275 295 306 303 303 305 294 282 279 39
57 71 108 126 150 218 240 247 131 98 298 185 162 174 160 132 174 236 195 197 217 186 170 169 161 138 331 318 310 199 226 249 276 283 293 301 309 309 296 288 285 271 87 120
45 15 160 144 229 286 233 197 125 115 235 164 176 180 159 192 195 182 152 197 160 155 153 101 95 298 283 303 173 235 240 265 260 277 291 299 309 306 298 295 316 112 116 113
171 156 198 102 57 276 165 85 168 207 206 181 183 184 191 182 150 165 170 141 141 138 134 109 53 352 338 325 242 256 270 269 273 275 284 298 311 318 337 26 76 105 124 134
240 190 184 186 214 246 225 215 236 173 158 196 179 162 162 153 174 169 149 141 134 131 124 89 54 330 327 327 268 284 281 305 286 266 268 286 302 331 333 148 149 122 140 167
245 160 213 93 255 233 244 263 228 194 204 154 144 144 149 159 157 140 151 140 143 142 120 76 316 322 316 323 306 292 302 296 288 258 265 274 296 312 318 111 149 156 189 231
203 141 206 257 281 284 263 236 209 182 155 140 146 156 167 152 156 145 146 149 152 152 190 312 318 306 304 328 326 310 294 293 284 250 248 279 271 273 183 173 188 215 234 204
191 198 168 236 225 199 231 209 175 162 168 157 152 123 102 128 141 136 149 161 155 167 329 315 304 310 313 322 309 304 301 285 273 270 267 238 255 248 210 210 244 264 255 252